Flag for Taiwan Weather past 2 weeks in Taichung, Taiwan

Now
93 °F

Scattered clouds.


Feels Like: 107 °F
Forecast: 83 / 94 °F
Wind: 28 mph from West

Location: Chiang Kai Shek

Current Time: Jun 30, 2015 at 12:31:16 PM

Latest Report: Jun 30, 2015 at 11:30 AM


Visibility: N/A

Pressure: 29.68 "Hg

Humidity: 59%

Dew point: 77 °F

Location of TaichungLocation

Historic Weather in Taichung — Graph

°F

Taichung temperature yesterday

Maximum temperature yesterday: 93 °F (at 12:00 PM)
Minimum temperature yesterday: 82 °F (at 2:30 AM)
Average temperature yesterday: 87 °F

Past Weeks' High & Low Weather Summary

 TemperatureHumidityPressure
High95 °F (Jun 18, 12:00 PM)100% (Jun 22, 10:30 PM)29.83 "Hg (Jun 22, 10:30 PM)
Low77 °F (Jun 23, 5:30 PM)47% (Jun 18, 10:00 AM)29.59 "Hg (Jun 17, 5:00 PM)
Average86 °F73%29.73 "Hg
* Reported Jun 15 11:00 AM — Jun 30 11:00 AM, Taichung, Weather by CustomWeather, © 2015

Note: Actual official high and low records may vary slightly from our data, if they occured in-between our weather recording intervals... More about our weather records

Advertising

Taichung weather history for previous 24 hours

 ConditionsComfort  
Time TempWeatherWind HumidityBarometerVisibility
11:00 AM
Tue, Jun 30
91 °FScattered clouds.30 mph63%29.68 "HgN/A
10:30 AM91 °FScattered clouds.28 mph63%29.68 "HgN/A
10:00 AM91 °FBroken clouds.28 mph59%29.68 "HgN/A
9:30 AM91 °FBroken clouds.28 mph63%29.68 "HgN/A
9:00 AM90 °FBroken clouds.28 mph63%29.68 "HgN/A
8:30 AM88 °FBroken clouds.25 mph70%29.68 "HgN/A
8:00 AM88 °FScattered clouds.26 mph70%29.68 "HgN/A
7:30 AM88 °FScattered clouds.20 mph70%29.68 "HgN/A
7:00 AM86 °FScattered clouds.16 mph70%29.68 "HgN/A
6:30 AM86 °FPartly sunny.14 mph70%29.68 "HgN/A
6:00 AM84 °FPartly sunny.10 mph74%29.68 "HgN/A
5:30 AM84 °FPartly sunny.9 mph74%29.68 "HgN/A
5:00 AM84 °FPassing clouds.12 mph74%29.68 "HgN/A
4:30 AM82 °FPassing clouds.9 mph79%29.68 "HgN/A
4:00 AM84 °FPassing clouds.13 mph74%29.68 "HgN/A
3:55 AM84 °FPassing clouds.13 mph74%29.68 "HgN/A
3:30 AM84 °FPassing clouds.12 mph74%29.68 "HgN/A
3:00 AM84 °FPassing clouds.14 mph74%29.68 "HgN/A
2:30 AM84 °FPassing clouds.12 mph70%29.68 "HgN/A
2:00 AM84 °FPassing clouds.7 mph70%29.68 "HgN/A
1:30 AM84 °FPassing clouds.8 mph74%29.71 "HgN/A
1:00 AM82 °FPassing clouds.8 mph84%29.71 "HgN/A
12:30 AM84 °FPassing clouds.8 mph74%29.71 "HgN/A
12:00 AM84 °FPassing clouds.8 mph74%29.71 "HgN/A
11:30 PM
Mon, Jun 29
84 °FPassing clouds.5 mph74%29.71 "HgN/A
11:00 PM84 °FPassing clouds.8 mph74%29.71 "HgN/A
10:30 PM84 °FPassing clouds.5 mph74%29.71 "HgN/A
10:00 PM82 °FPassing clouds.3 mph79%29.71 "HgN/A
9:30 PM84 °FPassing clouds.3 mph74%29.71 "HgN/A
9:00 PM84 °FPassing clouds.5 mph74%29.71 "HgN/A
8:30 PM86 °FPassing clouds.7 mph70%29.71 "HgN/A
8:00 PM86 °FPassing clouds.5 mph66%29.71 "HgN/A
7:30 PM88 °FPassing clouds.9 mph62%29.68 "HgN/A
7:00 PM88 °FPassing clouds.13 mph66%29.68 "HgN/A
6:30 PM90 °FSunny.9 mph67%29.68 "Hg10 mi
6:00 PM90 °FSunny.12 mph67%29.68 "Hg10 mi
5:30 PM90 °FPartly sunny.14 mph67%29.68 "HgN/A
5:00 PM91 °FPartly sunny.17 mph63%29.65 "HgN/A
4:30 PM93 °FPartly sunny.21 mph56%29.68 "HgN/A
4:00 PM93 °FScattered clouds.24 mph56%29.68 "HgN/A
3:30 PM93 °FScattered clouds.23 mph56%29.68 "HgN/A
3:00 PM93 °FScattered clouds.26 mph56%29.68 "HgN/A
2:30 PM93 °FScattered clouds.25 mph56%29.71 "HgN/A
2:00 PM93 °FPartly sunny.26 mph56%29.71 "HgN/A
1:30 PM93 °FPartly sunny.26 mph56%29.71 "HgN/A
1:00 PM91 °FBroken clouds.25 mph63%29.71 "HgN/A
12:30 PM93 °FBroken clouds.28 mph56%29.74 "HgN/A
12:00 PM93 °FBroken clouds.26 mph56%29.74 "HgN/A
Weather by CustomWeather, © 2015

See weather overviewHow to use our weather pages